Theta_e
348 343 340 339 339 339 338 336 334 333 331 324 318 313 311 311 308 305 304 304 303 302 304 305 305 308 304 301 301 300 299 299 296 299 302 302 301 301 303 304 307 306 306
343 340 337 337 335 334 332 332 332 324 319 313 311 308 307 305 303 303 302 302 301 300 301 303 305 306 300 300 299 297 296 297 296 294 295 298 298 300 300 300 303 305 303
338 335 334 332 328 324 319 318 316 314 312 309 307 304 304 303 301 301 301 300 299 300 302 303 301 301 298 298 297 296 296 297 295 294 294 296 297 298 297 298 300 299 303
330 327 322 319 316 314 313 311 310 308 304 302 302 302 301 300 300 300 300 300 301 303 303 302 302 300 298 297 296 295 295 294 294 293 293 294 294 296 296 296 298 299 299
320 317 312 312 311 310 309 307 304 303 302 301 299 299 298 299 301 299 301 301 301 302 303 303 303 303 304 302 298 295 294 293 293 293 293 293 293 294 295 296 298 300 299
314 311 311 309 308 307 307 305 302 301 299 298 296 295 295 298 300 302 300 299 299 300 300 298 298 300 300 301 302 303 301 294 293 293 291 292 293 296 296 295 298 297 295
311 311 309 308 307 305 304 302 300 297 296 294 293 294 293 295 297 299 300 296 296 297 295 295 297 298 297 296 298 300 299 302 300 298 296 297 298 298 299 294 293 292 294
309 308 308 307 304 304 302 299 298 295 294 293 292 292 293 296 296 296 298 295 295 294 294 294 293 293 295 295 295 295 294 296 298 299 299 298 296 296 295 297 296 296 296
306 306 306 305 304 303 300 299 297 295 294 292 292 292 292 292 295 295 294 293 293 293 295 295 294 293 295 295 294 293 292 292 297 298 297 296 295 295 296 293 293 292 291
305 304 305 306 304 302 300 299 297 296 294 293 292 291 294 290 294 294 292 292 291 292 293 294 297 294 294 294 290 290 287 289 290 290 290 291 292 292 295 292 292 290 290
305 305 304 303 301 300 299 298 297 296 294 291 290 289 289 290 291 293 294 291 290 292 295 295 294 294 293 292 292 288 288 290 289 288 288 288 288 288 290 292 293 291 290
303 302 302 302 301 300 298 297 297 295 292 290 288 287 287 287 293 292 292 293 295 295 295 294 294 292 291 291 289 291 291 290 286 285 285 289 290 290 291 292 293 293 294
299 298 298 296 296 297 296 295 295 295 292 290 288 286 285 286 286 291 291 293 295 294 294 294 292 291 291 289 291 291 289 285 285 287 288 289 290 291 291 291 292 293 293
295 293 292 290 289 289 290 290 292 293 292 291 287 284 284 285 286 286 287 289 294 293 291 289 291 290 290 288 286 286 285 286 288 288 289 290 290 290 290 291 290 291 291
292 290 289 287 287 286 286 286 287 286 290 288 285 285 285 285 286 288 288 287 287 289 287 285 283 283 282 283 284 284 284 287 288 289 288 288 288 289 290 291 291 291 291
291 289 287 286 286 286 286 286 290 290 289 289 288 287 286 289 290 290 290 290 289 289 284 281 281 281 281 281 281 282 283 285 286 287 286 286 286 287 288 290 292 291 292
289 288 287 286 285 285 285 286 285 287 290 290 289 289 289 289 289 289 289 288 287 286 281 281 280 280 280 280 280 280 280 282 284 284 283 284 285 287 288 289 290 291 292
291 291 287 287 286 285 285 285 285 285 284 284 288 288 289 289 289 288 288 287 283 283 281 280 279 279 279 279 280 280 280 281 281 281 282 282 283 283 285 287 289 290 292
292 292 291 290 289 288 287 286 285 285 285 285 285 287 287 288 288 288 287 283 281 280 280 279 279 279 279 279 279 279 279 279 280 280 280 280 281 282 283 285 288 289 290
295 294 294 294 293 291 291 289 287 285 285 285 285 284 285 285 284 283 283 282 281 279 279 278 278 278 278 277 277 277 277 279 279 279 279 280 281 282 282 284 286 289 290
294 294 291 295 294 293 293 292 290 287 285 285 284 284 283 284 283 282 282 281 280 279 278 277 276 276 277 277 276 276 277 278 278 278 279 279 280 281 283 285 285 287 287
294 294 294 294 294 292 290 287 285 285 285 283 282 283 283 283 283 282 281 281 280 279 278 277 276 276 276 276 277 277 277 277 278 278 278 279 280 281 282 283 285 286 286
294 294 294 294 292 287 288 285 284 284 284 284 284 284 283 282 282 282 281 280 279 278 278 277 276 276 277 278 278 278 276 278 278 279 278 278 279 280 281 282 284 285 285
294 294 294 291 289 288 287 285 284 284 285 284 283 282 281 282 282 282 281 280 279 279 278 277 277 278 278 279 279 279 280 280 280 280 280 279 279 280 281 281 283 285 285
293 293 291 289 288 286 285 285 284 284 285 284 283 282 281 282 282 282 281 281 280 279 279 278 278 279 279 279 279 280 280 280 280 280 280 280 280 280 280 281 282 283 284
292 293 289 286 286 286 286 285 285 284 283 283 282 281 281 281 281 281 281 281 280 280 280 279 279 280 280 280 280 280 280 280 280 280 280 280 279 279 280 281 281 281 283
Wind_Speed
13 12 14 12 11 9 13 12 9 12 15 11 13 12 11 10 8 9 6 7 7 6 5 5 5 5 5 4 4 4 4 2 2 4 2 4 5 5 7 7 7 6 7
16 14 15 15 13 12 13 14 13 14 12 13 12 13 12 10 7 8 7 5 6 6 5 6 6 5 5 5 4 5 4 3 3 3 3 3 3 4 5 6 6 6 6
16 18 16 16 15 14 14 15 13 15 12 12 13 12 11 8 8 6 6 5 5 5 6 7 6 6 5 3 3 4 3 3 2 1 3 2 3 2 4 4 5 6 6
18 17 18 17 17 14 16 16 15 13 13 13 13 12 9 8 7 5 5 5 6 6 6 6 6 6 5 3 4 5 4 4 2 2 3 3 2 4 3 5 9 6 8
20 19 19 17 17 17 18 16 15 14 13 12 12 9 7 7 5 6 6 7 6 6 5 5 5 9 12 10 3 5 5 3 3 2 3 2 3 4 5 4 6 8 9
21 21 20 19 18 17 18 16 15 14 12 12 10 9 7 6 9 10 8 6 5 5 6 5 5 8 8 13 11 10 5 2 4 3 2 3 4 4 3 4 6 7 6
23 17 19 20 20 16 16 17 14 13 12 11 9 8 7 6 11 11 9 5 5 6 6 5 5 6 9 6 9 11 10 7 7 4 3 4 5 6 7 6 3 3 5
22 20 19 19 18 16 17 16 13 11 11 10 9 8 9 7 11 9 9 6 7 7 6 5 6 6 7 6 6 6 6 6 7 6 5 5 4 6 5 5 6 6 6
19 20 19 17 16 16 19 14 12 12 11 10 9 9 10 7 10 8 7 6 6 6 5 6 6 6 10 10 6 5 5 5 7 11 10 11 11 11 9 5 6 8 10
17 17 16 16 15 16 16 14 9 11 12 9 10 7 11 6 10 10 6 4 5 4 5 6 11 7 12 11 6 5 5 6 7 8 5 6 7 7 11 6 7 7 7
17 16 16 14 15 14 14 12 12 12 11 10 9 6 6 6 7 11 9 5 4 4 5 6 5 9 9 8 7 4 4 6 8 6 6 6 5 5 4 4 6 5 6
17 16 16 13 11 10 13 11 12 12 11 8 7 5 4 5 9 10 11 10 5 5 5 4 3 5 7 8 5 9 10 7 4 5 5 6 7 7 7 7 8 8 8
16 17 12 12 10 9 11 11 10 9 8 6 5 5 4 4 4 11 11 10 10 7 3 5 5 6 7 5 9 11 8 5 4 5 7 7 7 8 9 7 8 9 9
12 11 11 11 10 9 7 5 7 7 6 6 6 5 3 4 4 4 4 5 8 6 6 5 6 6 8 7 6 6 5 4 6 6 7 7 7 7 7 7 8 9 8
10 11 9 8 10 10 9 5 6 4 5 6 4 4 5 4 3 2 5 4 3 4 6 4 4 4 5 5 5 6 6 7 8 7 7 8 8 8 7 8 6 8 6
10 8 7 7 7 7 8 9 16 13 15 14 11 6 2 5 5 8 10 9 10 8 5 3 3 4 4 4 5 6 6 9 8 8 7 8 8 9 9 9 8 8 8
10 8 8 8 6 6 6 7 9 8 13 12 9 9 7 6 7 9 9 11 12 6 4 4 3 4 4 4 4 4 5 5 6 6 7 8 9 9 10 9 9 9 9
8 14 7 6 6 5 5 5 5 6 6 4 7 7 8 8 9 9 8 9 5 6 3 3 4 4 4 4 4 4 5 6 6 7 7 8 8 8 10 10 10 10 10
7 6 7 6 5 6 5 5 5 5 6 4 4 5 6 8 9 8 9 5 4 4 3 4 3 4 4 4 4 5 4 5 5 6 7 7 8 8 9 9 10 12 10
4 10 7 6 6 6 5 5 4 5 4 4 3 2 1 5 4 3 4 4 4 3 4 4 4 4 4 4 4 4 5 6 7 6 7 7 8 7 8 10 10 11 11
4 5 7 6 6 5 5 6 5 4 4 3 3 2 5 5 5 4 4 4 4 4 4 4 4 4 4 4 4 5 5 5 6 6 7 7 8 8 8 8 9 10 10
3 4 4 5 5 5 4 5 5 4 4 4 3 3 6 5 5 5 4 4 4 4 3 3 4 4 4 4 4 5 5 6 6 7 7 7 7 8 8 8 9 10 11
3 4 4 4 5 6 5 5 5 5 5 5 5 4 4 5 5 5 5 4 4 4 3 4 4 4 4 4 4 4 5 6 6 6 6 7 7 8 7 8 9 10 11
3 4 4 4 5 5 5 5 5 6 6 6 6 5 5 4 5 5 5 4 4 4 4 4 4 5 4 5 5 5 5 6 6 6 8 6 7 8 7 7 8 10 10
2 3 4 5 5 5 6 6 5 6 6 6 5 5 4 5 5 5 4 4 4 4 4 4 4 5 6 8 9 10 10 11 9 9 6 6 8 9 8 7 9 8 9
2 2 4 5 6 6 7 8 7 7 7 6 5 4 5 5 4 5 4 4 4 4 4 4 5 7 7 6 9 10 12 13 12 12 7 6 7 7 7 9 11 8 9
Wind_Direction
162 151 138 140 129 132 113 112 111 101 107 118 97 103 94 91 75 87 74 64 76 71 52 62 45 60 52 49 48 49 45 45 50 316 312 332 338 338 338 338 342 339 345
152 140 137 123 120 114 110 114 111 98 97 102 100 95 90 81 69 75 78 69 71 62 49 49 47 73 61 53 53 51 47 31 63 292 305 310 298 307 311 323 325 332 329
138 134 130 119 113 110 108 101 100 102 104 103 92 88 82 79 79 66 72 69 69 60 56 77 82 86 66 50 45 43 35 8 24 316 292 285 279 313 312 306 318 310 320
133 128 115 110 110 110 104 99 97 98 101 88 84 84 83 79 68 67 68 66 67 73 78 86 89 88 81 49 36 20 32 8 348 326 288 291 292 305 315 325 341 334 321
122 115 109 109 106 106 101 99 96 94 88 88 91 84 79 76 71 82 69 73 89 90 87 82 74 68 55 47 36 16 27 11 342 322 306 311 310 331 344 320 331 334 322
112 116 116 111 106 104 106 100 96 94 90 89 80 79 73 73 79 87 83 84 90 99 113 85 74 47 36 38 26 36 37 49 344 323 311 319 294 305 316 312 322 342 336
112 116 111 113 107 108 106 102 101 99 97 89 83 87 76 69 66 76 85 89 91 81 81 67 55 35 34 26 23 30 18 14 9 316 311 320 311 323 316 310 295 289 278
114 116 112 109 109 114 106 101 105 102 102 101 90 74 73 57 67 77 85 90 91 86 80 69 59 33 23 25 25 18 6 359 359 352 328 312 314 316 311 297 296 292 285
112 112 110 112 117 116 105 115 113 112 102 95 90 82 78 57 65 73 92 89 86 74 61 51 56 41 26 24 19 358 354 352 345 355 5 351 342 337 337 344 337 329 320
101 101 105 111 113 111 113 119 116 108 105 99 86 75 88 76 56 70 78 94 82 73 54 55 45 68 58 48 32 10 3 332 339 344 329 322 320 321 335 340 326 314 321
100 100 99 102 109 110 111 115 115 109 103 95 92 71 68 70 49 58 63 80 81 68 61 56 65 63 65 44 36 17 349 335 341 332 320 315 316 309 307 308 306 300 295
98 97 98 99 103 111 111 112 112 114 113 110 99 79 53 46 58 51 52 57 71 86 70 65 63 57 50 38 19 6 356 353 335 330 323 326 333 332 331 323 313 298 280
87 78 84 86 84 91 110 117 117 119 124 118 108 90 66 41 41 46 51 63 73 77 72 77 44 41 25 2 2 3 358 354 339 346 343 333 330 320 319 317 309 296 285
90 96 84 83 81 73 68 75 110 122 122 123 106 98 88 58 50 38 47 55 64 68 54 44 38 21 24 17 6 0 358 358 356 344 339 325 319 330 331 329 321 326 318
93 84 85 86 86 79 64 55 90 59 108 125 115 122 105 79 29 69 115 90 87 81 75 27 19 3 7 2 1 6 2 5 2 349 343 331 331 334 334 334 323 324 323
97 91 90 87 84 87 94 80 52 79 86 92 106 112 92 103 72 73 77 73 61 52 50 41 20 16 19 358 5 3 14 6 355 348 344 335 334 336 332 330 332 330 324
106 109 99 92 96 101 89 106 110 62 75 79 87 96 107 120 93 81 74 67 43 52 62 41 22 19 7 358 0 2 5 350 338 344 340 339 335 335 336 337 338 333 334
101 109 106 108 101 96 101 106 107 121 113 82 48 75 84 91 85 70 57 76 51 36 49 51 36 12 2 3 356 1 352 355 360 348 343 341 337 335 336 342 339 333 333
108 120 119 112 113 114 104 96 94 102 88 89 75 54 38 53 65 68 54 91 101 75 45 40 21 22 7 356 353 355 353 352 350 348 343 338 336 337 333 335 335 331 330
123 130 125 124 126 122 125 121 105 91 101 109 112 117 47 48 62 57 62 84 85 85 69 54 15 14 16 359 351 351 353 357 356 354 343 337 335 333 332 335 341 339 346
97 112 120 123 135 146 151 149 133 136 142 145 139 135 104 115 114 105 106 94 94 78 70 62 39 15 9 0 348 354 2 350 350 346 339 336 335 335 333 332 333 338 346
91 116 121 133 136 128 105 115 122 135 142 128 103 77 102 95 99 101 96 96 87 76 61 64 51 27 13 7 356 358 355 354 348 347 338 334 333 333 337 336 341 346 352
113 128 125 130 122 119 111 112 119 123 117 104 101 101 100 99 104 104 107 103 91 76 50 51 48 29 358 358 354 353 353 348 330 323 327 330 332 335 335 337 339 348 359
147 148 139 129 134 128 122 117 106 103 111 103 98 93 93 98 106 110 110 107 92 73 50 39 37 32 11 7 359 359 357 348 337 333 328 320 327 334 340 342 344 346 357
148 151 152 146 143 133 122 124 115 110 107 110 107 98 92 92 99 100 103 110 105 87 61 42 28 19 18 12 6 2 359 355 1 348 340 339 343 346 348 347 349 346 356
220 142 122 122 125 126 130 131 127 122 115 106 100 97 101 101 100 102 100 98 97 88 79 43 33 31 16 6 6 2 3 3 7 357 352 355 357 355 350 356 353 355 352